Location: Korczew
(51.3586°N, 19.4491°E)
Time: 16:50:47
(UTC+00:00)

Cosmos 2056 Rocket - Pass Details

Date: 19 May 2025
Orbit: 739 x 796 km, 74.0° (Epoch: 20 June)

Event Time Altitude Azimuth Distance (km) Brightness Sun altitude
Rises 22:40:32 0° 335° (NNW) 3,289 7.9 -18.7°
Reaches altitude 10° 22:42:57 10° 336° (NNW) 2,349 7.0 -18.7°
Maximum altitude 22:48:18 85° 66° (ENE) 783 3.5 -18.6°
Enters shadow 22:50:56 31° 153° (SSE) 1,340 4.3 -18.6°
